Wind_Speed
24 23 22 21 20 17 14 9 5 2 1 2 3 5 8 10 10 11 12 12 12 11 10 9 9 9 8 9 9 9 9 10 10 10 10 10 10 10 11 11 12 12 12 12 13 13 13 13 13
27 26 25 24 23 21 17 12 5 1 1 4 5 7 8 10 10 11 11 11 11 10 9 8 8 8 8 8 7 8 8 8 8 8 8 8 8 8 9 10 10 11 11 11 12 12 13 13 13
29 29 29 28 26 24 20 15 8 3 1 4 8 8 9 9 9 9 10 10 9 8 8 7 7 6 6 6 6 6 6 6 5 5 5 5 6 6 7 8 9 9 10 10 11 12 12 13 13
29 31 32 31 29 27 22 17 10 7 5 5 9 9 9 9 9 9 9 9 8 7 6 6 6 5 5 5 5 5 5 4 4 4 4 4 4 5 6 8 8 9 9 9 10 11 12 12 12
29 31 33 32 29 28 24 19 13 9 8 9 10 10 10 10 10 9 9 7 6 6 5 6 5 5 5 5 4 4 4 4 3 3 3 3 4 5 6 7 8 8 9 9 10 11 11 12 12
26 30 31 30 29 30 27 22 17 12 11 11 12 11 12 11 9 8 8 6 5 5 5 5 5 4 4 4 3 3 3 2 2 1 2 2 3 4 5 6 7 8 9 10 10 11 11 12 13
22 26 27 28 31 32 28 24 19 14 13 12 14 13 12 11 9 8 8 6 5 5 4 4 4 3 3 2 2 1 1 1 0 1 1 2 3 4 5 6 7 8 8 9 11 11 12 13 13
20 22 23 26 31 32 30 26 20 16 14 14 16 15 14 13 9 7 7 6 5 4 4 4 4 3 2 2 1 1 2 2 2 2 2 2 3 4 5 6 7 8 9 10 11 12 13 14 14
20 18 17 22 29 31 32 30 24 20 18 18 19 18 18 15 11 7 7 6 5 5 4 4 4 3 2 2 1 2 2 2 2 2 2 2 3 4 5 6 7 8 9 11 12 13 14 15 16
19 15 14 21 27 32 35 33 27 23 21 21 21 21 21 17 13 9 8 8 7 7 6 5 4 3 2 2 1 1 2 2 2 2 1 2 2 3 4 6 8 9 11 12 13 14 15 17 18
19 15 18 22 26 31 34 33 29 25 24 23 23 22 21 19 15 12 10 9 9 8 7 5 4 4 2 1 1 1 1 2 1 1 1 2 3 4 5 7 9 10 11 13 14 16 17 18 19
20 18 19 21 25 29 31 31 29 27 25 24 24 23 21 20 17 14 12 10 9 9 8 6 5 4 3 2 1 0 1 1 1 1 2 3 4 5 6 7 9 11 12 13 14 15 17 18 19
22 21 21 22 24 26 27 28 28 27 26 26 26 25 22 19 17 16 14 12 10 9 9 8 6 5 4 3 2 2 2 3 2 2 3 4 5 6 7 8 10 11 12 13 15 15 17 18 19
25 24 23 23 24 25 26 26 26 25 27 28 28 26 23 20 18 17 16 13 12 11 10 9 7 7 6 5 5 5 5 5 4 5 5 6 6 8 8 10 11 13 14 15 16 16 16 17 18
28 26 25 24 24 24 25 23 23 24 28 29 30 28 26 23 20 19 18 17 15 14 12 11 10 8 8 8 8 7 7 7 7 7 7 8 9 10 10 12 14 14 15 16 17 17 17 17 17
30 28 24 23 23 23 22 19 21 25 29 30 30 28 26 24 20 20 19 19 18 17 14 14 12 11 10 10 10 9 9 9 10 10 9 10 11 13 13 15 15 16 16 17 17 16 17 18 17
30 27 24 23 22 21 20 18 20 24 27 29 30 29 27 25 22 20 20 20 20 18 18 17 15 14 13 13 12 12 12 13 13 14 13 14 15 16 17 18 18 18 19 19 19 18 19 19 19
28 27 24 22 21 21 19 18 18 22 26 28 29 29 28 27 25 23 22 22 21 20 19 19 19 18 16 16 16 16 17 17 17 18 18 18 19 19 20 21 22 22 21 21 21 22 22 21 21
27 27 26 24 23 22 20 19 19 21 24 27 28 28 28 27 26 25 23 23 24 23 22 21 21 19 19 20 21 21 21 21 21 22 23 23 23 23 24 24 24 24 25 24 24 24 24 23 22
28 28 27 25 24 22 20 19 19 21 22 24 26 27 26 26 26 26 25 25 25 24 24 23 22 21 22 23 25 25 25 25 26 26 27 27 27 26 26 27 27 27 28 28 27 27 26 25 25
29 28 28 26 25 23 21 21 20 21 22 24 25 26 26 26 26 26 27 27 26 27 26 24 24 25 26 27 29 29 29 29 30 30 30 30 30 29 30 30 30 30 30 30 30 29 28 28 28
29 29 29 28 26 24 24 23 22 24 26 27 28 27 26 26 26 27 27 29 29 29 29 28 29 30 31 31 31 32 32 32 34 34 33 33 33 33 33 33 33 32 33 33 33 32 32 31 31
28 29 30 30 29 29 27 26 25 27 29 29 30 30 29 28 29 29 30 31 31 32 33 33 34 34 34 35 35 36 35 36 36 36 35 35 35 36 36 36 34 35 35 34 34 34 35 35 35
28 28 30 32 32 31 28 28 27 27 30 31 32 32 31 31 32 33 33 33 34 35 36 37 36 36 36 37 38 38 37 37 37 36 36 37 37 38 37 36 36 37 37 36 36 38 37 39 40
27 29 30 31 33 32 28 28 28 27 29 33 34 34 33 33 33 34 35 36 36 36 36 38 38 37 38 39 40 40 38 38 38 38 39 39 38 38 38 39 39 39 38 39 41 42 42 43 44
26 28 29 29 31 30 28 29 30 28 29 32 34 35 35 35 34 34 35 37 37 38 39 39 39 39 40 41 41 40 39 39 39 39 40 40 40 40 41 41 42 42 43 43 44 44 46 46 48
24 25 26 27 28 28 30 32 31 29 29 31 33 34 35 35 35 36 37 38 39 40 41 41 41 41 41 41 41 41 41 41 41 41 41 41 42 42 43 44 44 45 46 46 47 47 49 50 52
21 22 24 26 26 27 28 30 31 29 28 28 30 32 34 35 36 36 37 39 41 41 42 42 42 42 42 42 42 41 41 41 42 41 42 42 43 44 45 46 47 48 49 49 50 51 53 54 55
19 22 25 25 25 26 27 29 31 29 28 29 30 31 34 35 36 37 39 41 42 42 42 43 43 43 43 42 42 41 40 41 41 42 42 43 44 45 46 48 50 51 52 53 54 55 57 57 58
20 22 24 26 26 26 27 31 32 31 29 29 30 31 33 35 36 38 39 39 41 41 42 42 42 42 42 41 41 41 41 42 43 44 45 45 46 48 50 51 52 54 56 57 58 59 60 60 60
Wind_Direction
211 206 200 197 196 203 215 228 222 185 92 304 319 319 311 311 310 303 292 287 288 283 276 270 260 255 254 254 255 257 259 260 264 267 271 275 279 282 285 287 288 289 290 290 288 287 287 286 286
213 210 206 201 200 204 213 222 224 122 31 302 302 313 310 308 307 299 287 283 282 274 267 264 255 250 248 248 250 252 253 255 260 267 272 277 280 284 288 291 292 293 294 294 293 293 292 291 289
216 213 210 204 201 205 212 217 207 175 172 286 298 312 315 302 297 291 284 279 275 265 258 255 249 243 241 240 243 243 241 243 252 260 268 276 284 291 295 297 297 298 299 300 299 297 296 295 294
219 216 213 206 202 205 212 214 205 189 185 255 285 302 305 300 293 288 287 281 271 261 252 246 239 236 236 234 232 227 228 233 238 245 256 273 286 293 297 299 300 302 302 302 301 299 298 297 296
223 220 217 209 202 205 211 216 214 208 214 237 264 284 296 298 300 293 289 278 266 259 251 240 232 232 233 229 225 225 226 229 235 241 255 277 290 297 301 302 302 303 304 303 301 299 298 295 293
227 225 221 212 203 206 213 215 215 219 221 237 258 273 286 294 298 288 284 279 267 258 247 239 232 233 231 225 222 220 221 224 235 257 276 295 303 306 309 310 310 309 308 306 304 302 298 295 293
233 230 224 212 204 206 212 216 217 223 230 241 256 268 276 285 289 284 277 277 268 255 246 236 228 228 222 214 196 163 140 122 81 10 344 335 334 330 326 323 320 318 316 313 310 306 301 298 295
234 233 225 214 206 206 211 218 221 231 236 247 256 265 274 279 278 282 274 272 264 246 234 233 223 213 192 168 144 110 88 69 52 32 13 1 351 345 341 334 326 323 322 318 313 308 303 299 296
237 235 228 215 206 203 209 217 221 226 230 239 255 265 268 268 268 265 266 262 249 233 221 215 212 206 187 160 131 99 69 54 40 28 20 5 353 348 343 337 331 325 322 321 318 313 306 300 296
239 232 218 210 203 202 208 214 218 225 231 237 250 259 263 263 257 248 249 246 235 226 218 214 217 212 193 161 122 73 63 54 39 32 29 5 350 343 337 334 329 323 320 318 315 312 309 303 297
237 226 215 210 205 205 208 211 214 220 228 236 245 252 255 253 248 240 240 239 231 224 218 220 224 223 209 183 130 88 62 46 33 28 8 344 332 333 333 333 332 327 325 321 314 310 306 303 299
233 224 219 212 208 210 210 211 213 216 225 231 239 244 245 249 246 239 233 233 232 226 223 225 236 236 231 221 189 81 11 12 351 328 330 329 332 337 339 337 334 331 328 326 321 314 308 304 300
230 225 221 216 213 214 213 213 214 214 221 228 233 237 241 243 244 244 236 233 229 229 229 228 241 246 240 245 264 300 314 313 317 322 316 310 312 325 328 332 333 331 328 328 328 321 314 307 302
226 225 223 220 216 215 215 214 215 214 221 226 230 235 238 240 243 246 243 241 240 231 228 233 241 249 255 263 273 286 292 304 311 310 310 308 307 315 319 320 327 329 328 327 327 323 318 313 307
225 226 225 224 221 218 218 217 218 216 221 225 230 234 238 241 245 247 248 249 246 236 231 234 238 245 259 266 273 280 287 294 296 300 305 305 304 308 314 318 321 325 326 325 322 320 318 315 307
226 226 225 226 225 223 222 215 217 216 221 223 229 234 237 242 246 247 250 252 255 248 241 239 240 245 255 265 273 278 282 287 291 293 297 300 302 306 310 315 314 317 319 319 318 318 317 316 310
226 225 224 224 223 223 223 215 217 217 220 221 224 229 234 241 245 247 252 255 256 255 247 246 246 247 252 261 269 277 281 284 285 287 289 292 294 299 303 307 310 311 316 318 317 314 315 314 310
224 222 220 217 213 215 217 211 211 215 216 218 221 224 229 237 241 246 249 251 254 256 253 251 250 250 253 262 269 275 280 283 285 287 288 289 291 294 297 301 304 304 309 312 314 311 310 308 306
221 219 216 208 205 212 213 208 205 208 211 215 218 222 227 234 239 244 248 250 252 253 257 256 259 262 262 268 273 275 278 282 284 286 288 288 287 289 292 296 298 299 303 305 307 308 305 302 301
219 216 210 201 205 210 209 204 204 204 209 215 219 225 232 237 241 246 248 253 256 258 262 263 262 265 267 269 274 274 275 279 282 284 285 285 285 286 287 292 294 296 299 300 301 302 300 299 297
217 212 204 199 203 209 210 206 205 209 215 218 224 229 235 240 243 247 252 256 261 260 264 265 263 264 265 269 272 271 274 277 280 280 281 282 284 284 286 290 292 292 294 295 295 296 298 296 294
212 209 204 201 202 202 210 211 209 214 219 222 227 232 237 242 246 250 255 258 261 262 263 263 267 268 265 267 270 273 274 277 278 279 277 280 282 281 283 285 287 288 292 292 292 294 296 294 293
207 205 205 204 206 206 212 216 213 216 220 225 229 234 240 245 250 253 256 260 263 265 266 267 268 269 269 270 273 275 273 277 278 278 278 279 281 281 283 282 284 288 291 290 290 293 294 294 293
206 205 208 209 212 211 214 221 220 221 224 228 231 235 241 245 250 254 257 261 263 265 267 268 269 271 270 270 274 275 274 277 278 280 281 279 281 283 284 284 288 289 289 289 289 293 293 293 292
211 211 212 214 217 216 216 226 226 224 226 229 232 236 240 244 249 254 257 259 262 264 265 269 272 271 273 275 275 275 278 280 281 282 280 282 284 283 283 286 288 288 290 290 290 292 292 291 291
214 217 219 222 223 222 223 229 230 227 228 231 233 235 238 242 246 251 255 258 261 264 267 270 271 273 274 276 277 274 278 278 280 282 281 283 283 284 284 285 287 288 289 290 290 290 291 291 291
218 221 223 226 228 228 227 229 233 231 232 233 235 236 240 243 247 251 255 258 261 264 267 270 273 275 276 277 278 278 278 278 279 281 281 282 282 284 285 286 287 289 289 289 289 289 290 290 290
217 220 223 225 227 227 225 229 233 236 239 237 236 238 240 243 247 251 255 258 261 264 267 269 272 274 276 277 278 278 278 279 280 281 282 283 284 284 285 286 287 289 289 289 289 289 290 290 291
214 218 222 225 226 228 228 231 234 239 241 243 243 242 244 246 248 251 254 256 259 262 265 267 270 272 274 275 276 276 277 279 280 281 283 284 284 285 286 287 288 288 289 289 289 289 290 291 291
215 218 221 224 225 229 233 236 237 243 249 251 251 252 251 250 250 251 252 253 256 259 263 266 268 270 271 273 274 276 278 279 280 281 283 284 284 284 284 286 288 288 288 288 288 289 290 290 291
Height
5890 5892 5895 5898 5900 5900 5899 5900 5899 5899 5899 5900 5901 5902 5904 5904 5905 5907 5905 5902 5902 5901 5902 5902 5902 5903 5903 5904 5904 5905 5905 5905 5906 5906 5906 5906 5906 5906 5906 5906 5905 5905 5904 5904 5903 5903 5902 5902 5902
5886 5889 5892 5895 5896 5897 5898 5898 5898 5898 5898 5898 5900 5901 5903 5903 5903 5903 5902 5901 5901 5900 5901 5901 5902 5902 5903 5903 5903 5904 5904 5905 5905 5905 5905 5905 5906 5905 5905 5905 5904 5904 5903 5903 5902 5902 5901 5901 5900
5882 5884 5888 5890 5892 5894 5895 5896 5896 5896 5897 5897 5897 5899 5901 5902 5902 5901 5901 5900 5900 5900 5900 5900 5901 5901 5902 5902 5903 5903 5904 5904 5904 5904 5905 5905 5905 5905 5904 5904 5903 5903 5903 5902 5901 5901 5900 5899 5899
5877 5880 5883 5886 5889 5892 5893 5894 5894 5894 5895 5895 5896 5898 5899 5901 5901 5900 5899 5899 5899 5899 5899 5900 5900 5901 5902 5902 5903 5903 5903 5904 5904 5904 5904 5904 5904 5904 5903 5903 5903 5902 5902 5901 5901 5900 5899 5898 5897
5873 5875 5878 5882 5886 5889 5891 5892 5892 5892 5893 5894 5895 5896 5897 5899 5899 5898 5897 5897 5897 5898 5898 5899 5900 5900 5901 5902 5902 5902 5903 5903 5903 5903 5903 5903 5903 5903 5903 5902 5902 5901 5901 5900 5899 5898 5897 5896 5895
5869 5871 5874 5879 5884 5886 5888 5889 5890 5891 5890 5892 5893 5894 5895 5897 5898 5897 5896 5896 5897 5897 5898 5898 5899 5900 5901 5901 5902 5902 5902 5903 5903 5903 5903 5903 5902 5902 5902 5901 5901 5900 5900 5899 5898 5897 5896 5895 5893
5866 5867 5870 5876 5879 5882 5885 5886 5887 5888 5889 5890 5891 5892 5893 5896 5897 5896 5895 5895 5896 5896 5897 5898 5899 5900 5900 5901 5901 5902 5902 5902 5902 5902 5902 5902 5901 5901 5901 5900 5900 5899 5898 5897 5896 5895 5894 5892 5891
5861 5864 5867 5871 5875 5879 5882 5882 5884 5886 5887 5887 5888 5890 5892 5894 5895 5895 5894 5894 5895 5896 5897 5898 5899 5899 5900 5901 5901 5901 5901 5902 5902 5901 5901 5901 5901 5900 5900 5899 5898 5897 5896 5895 5894 5892 5891 5889 5888
5858 5862 5864 5867 5871 5876 5877 5878 5880 5881 5883 5885 5886 5889 5890 5891 5893 5894 5894 5894 5895 5896 5897 5897 5898 5899 5899 5900 5900 5900 5901 5901 5901 5900 5900 5900 5899 5899 5898 5898 5897 5895 5894 5893 5891 5890 5888 5886 5885
5855 5858 5861 5863 5867 5870 5872 5874 5876 5878 5880 5882 5884 5886 5887 5889 5891 5893 5894 5894 5895 5896 5896 5897 5898 5898 5899 5899 5899 5899 5900 5900 5900 5899 5899 5898 5898 5897 5896 5895 5894 5893 5891 5890 5888 5887 5885 5883 5882
5852 5855 5856 5858 5862 5864 5866 5869 5872 5874 5876 5879 5882 5883 5885 5886 5889 5891 5893 5893 5894 5895 5895 5896 5897 5898 5898 5898 5898 5898 5898 5898 5898 5898 5897 5896 5896 5895 5894 5893 5891 5890 5888 5887 5885 5883 5881 5880 5878
5849 5851 5852 5854 5857 5860 5862 5864 5867 5870 5874 5876 5877 5879 5881 5883 5886 5888 5890 5891 5892 5893 5894 5895 5896 5896 5897 5897 5897 5897 5897 5897 5896 5896 5896 5895 5894 5893 5891 5890 5889 5887 5885 5883 5881 5879 5877 5875 5874
5845 5847 5849 5851 5853 5856 5859 5861 5863 5867 5870 5872 5873 5875 5878 5880 5883 5884 5887 5889 5890 5891 5892 5893 5894 5895 5895 5895 5895 5895 5895 5895 5895 5894 5893 5892 5891 5890 5889 5887 5886 5884 5882 5880 5877 5875 5873 5871 5869
5840 5843 5845 5847 5849 5852 5855 5857 5860 5864 5866 5868 5870 5872 5875 5878 5880 5881 5884 5887 5888 5888 5889 5890 5891 5892 5893 5893 5893 5893 5893 5892 5892 5891 5891 5890 5889 5888 5886 5885 5883 5880 5878 5876 5874 5871 5869 5867 5865
5834 5838 5841 5844 5846 5848 5851 5854 5857 5861 5862 5865 5867 5869 5871 5874 5876 5878 5881 5883 5885 5886 5887 5888 5888 5889 5889 5890 5890 5890 5889 5889 5889 5888 5887 5887 5886 5884 5883 5881 5879 5877 5875 5873 5870 5868 5866 5864 5861
5829 5834 5838 5841 5843 5845 5849 5852 5854 5856 5857 5860 5863 5866 5867 5870 5872 5875 5877 5879 5881 5883 5884 5885 5885 5886 5886 5887 5886 5886 5886 5885 5884 5884 5883 5882 5881 5880 5879 5877 5875 5873 5871 5869 5867 5865 5863 5860 5858
5825 5830 5834 5837 5839 5841 5844 5848 5849 5851 5853 5855 5859 5862 5864 5866 5869 5872 5874 5876 5876 5878 5880 5881 5881 5881 5882 5882 5882 5882 5882 5881 5881 5879 5878 5877 5876 5875 5873 5872 5870 5868 5866 5864 5862 5860 5858 5856 5854
5821 5825 5828 5831 5833 5836 5839 5842 5845 5846 5849 5851 5854 5857 5860 5862 5866 5868 5870 5872 5873 5873 5874 5875 5875 5875 5876 5877 5877 5877 5876 5876 5876 5875 5873 5872 5871 5869 5868 5866 5864 5862 5861 5859 5857 5855 5853 5851 5849
5815 5819 5823 5826 5828 5830 5833 5837 5840 5842 5844 5846 5849 5852 5856 5859 5862 5864 5866 5867 5868 5868 5869 5869 5869 5870 5869 5870 5870 5870 5870 5869 5869 5869 5867 5866 5864 5863 5861 5860 5858 5856 5855 5852 5851 5849 5847 5846 5844
5809 5814 5819 5821 5823 5826 5829 5833 5835 5838 5841 5843 5845 5847 5850 5854 5856 5859 5860 5861 5862 5862 5863 5863 5863 5864 5864 5864 5863 5863 5863 5862 5862 5861 5860 5858 5857 5855 5854 5852 5851 5850 5848 5846 5845 5843 5841 5839 5838
5804 5810 5814 5816 5818 5821 5825 5829 5832 5834 5836 5839 5841 5843 5845 5848 5851 5853 5855 5856 5857 5857 5857 5858 5858 5859 5858 5857 5856 5855 5855 5854 5854 5853 5852 5851 5849 5847 5846 5845 5843 5842 5841 5839 5838 5836 5834 5833 5831
5800 5805 5808 5810 5813 5817 5821 5824 5827 5829 5832 5834 5837 5838 5840 5843 5845 5847 5849 5850 5852 5852 5852 5852 5853 5852 5851 5850 5848 5847 5847 5847 5845 5844 5843 5842 5841 5839 5838 5836 5835 5834 5832 5831 5829 5828 5826 5825 5823
5795 5799 5802 5806 5808 5812 5815 5819 5823 5825 5827 5830 5832 5834 5836 5837 5839 5841 5843 5844 5845 5845 5845 5845 5845 5844 5844 5843 5841 5840 5840 5839 5837 5836 5834 5834 5833 5831 5829 5828 5827 5825 5824 5822 5821 5819 5818 5816 5814
5789 5794 5797 5801 5804 5808 5811 5814 5818 5820 5822 5825 5827 5828 5830 5832 5833 5834 5836 5837 5838 5838 5839 5838 5836 5836 5836 5835 5834 5833 5832 5830 5829 5828 5826 5825 5824 5822 5820 5819 5818 5817 5815 5814 5812 5810 5808 5806 5803
5785 5789 5793 5797 5800 5804 5808 5809 5812 5814 5816 5818 5821 5823 5824 5826 5827 5828 5829 5830 5831 5832 5832 5831 5829 5828 5828 5827 5826 5824 5823 5822 5821 5820 5816 5816 5815 5813 5812 5811 5810 5807 5806 5804 5802 5800 5798 5795 5792
5780 5784 5789 5793 5796 5800 5803 5803 5806 5808 5810 5812 5814 5816 5817 5819 5821 5822 5823 5823 5824 5824 5823 5823 5820 5820 5820 5819 5816 5814 5814 5813 5814 5812 5809 5808 5807 5805 5804 5802 5800 5799 5797 5794 5792 5789 5786 5783 5780
5776 5779 5784 5787 5790 5793 5795 5797 5800 5801 5803 5805 5806 5808 5809 5811 5813 5814 5815 5815 5816 5815 5815 5814 5813 5812 5812 5811 5810 5808 5807 5806 5805 5804 5803 5801 5799 5797 5795 5793 5790 5788 5786 5783 5780 5777 5774 5770 5767
5772 5775 5778 5781 5784 5787 5790 5792 5794 5795 5796 5797 5798 5799 5801 5802 5804 5805 5806 5807 5807 5807 5807 5806 5805 5804 5804 5803 5801 5800 5799 5797 5796 5795 5793 5791 5789 5787 5785 5782 5780 5777 5774 5771 5768 5764 5761 5757 5753
5768 5771 5773 5776 5778 5782 5785 5788 5787 5789 5789 5790 5790 5791 5793 5794 5795 5796 5797 5797 5798 5798 5798 5798 5797 5796 5795 5794 5793 5791 5790 5789 5787 5785 5783 5781 5779 5776 5774 5771 5768 5765 5761 5758 5754 5751 5747 5743 5738
5764 5766 5768 5771 5774 5776 5779 5783 5780 5782 5782 5783 5783 5783 5784 5786 5787 5788 5788 5788 5789 5789 5789 5789 5788 5788 5787 5786 5784 5783 5781 5779 5777 5775 5773 5771 5768 5765 5762 5759 5755 5751 5748 5744 5740 5736 5732 5728 5723